STARLINK-11557, 62837

Orbit data source: Space-Track

STARLINK-11557, 62837 is a payload satellite owned by SpaceX/Seattle (US) in LEO that was launched on Mon, 27 Jan 2025 UTC via an FALCON 9 launch vehicle from the Air Force Eastern Test Range (AFETR). Payload-class satellites include a variety of spacecraft equipped with specific instruments for various scientific and technological missions. These include communications satellites like Starlink; space stations such as the ISS; scientific satellites like the Hubble; Earth observation satellites from companies like Planet Labs, Umbra, and HawkEye 360; GPS; miniature CubeSats for education and research; and military/defense satellites.

Loading next visibility...
Identifier
62837, 2025-019J
Orbit
LEO
Country
Flag of USUS
Related business
Manufacturer
SpaceX/Seattle
Mission
Operational Commercial Communications
Bus & Motor
STARLINK V2MD, Unknown motor
Mass
960 kg wet, ~910 kg dry
Launch date (UTC)
2025-01-27 (8 months ago)
Launch vehicle
FALCON 9
Launch site
Air Force Eastern Test Range (AFETR)
Object type
Payload
Rocket body
Debris
Shape & HBR
Box + 2 Pan, 14.5 m
Radar Cross Section
36.964 m², Large (>1 m²)

Expand to show TLE details & history
Last TLE update: 16 hours ago

TLE from 16 hours ago
0 STARLINK-11557
1 62837U 25019J   25258.14492681  .00373076  00000-0  27801-2 0  9996
2 62837  42.9988 283.9699 0003699 298.6976  61.3520 15.70858410 36272
Epoch: 2025-09-15T03:28Z
TLE epoch observation values (Epoch: 2025-09-15T03:28:41.676Z)
Latitude
0.00001°
Longitude
-122.55753°
Altitude
355.02 km
Speed
7.699 km/s
True Right ascension
18h 55m 52s
True Declination
0° 00' 00"
Sunlit
Object was in full shadow at epoch
Visualization orbit readout
Latitude
Unknown
Longitude
Unknown
Altitude
Unknown
Speed
Unknown
Apparent Right ascension
Unknown
Apparent Declination
Unknown
Sunlit
N/A
Visualization observer readout
Local Sidereal Time
12:23:15
Azimuth
Unknown
Elevation
Unknown
Doppler factor
Unknown
Orbital elements
Apogee altitude
360.916 km
Perigee altitude
355.932 km
Semi-major axis
6,736.561 km
Eccentricity
0.00037
Inclination
42.9988°
RAAN
283.9699°
Arg. of periapsis
298.6976°
True anomaly
61.38921°
Mean anomaly
61.352°
Eccentric anomaly
61.3706°
Mean motion
3.92542 °/min
Orbital period
91.71 mins
BSTAR
0.0027801
Loading maneuver chart data...
Computing Atmospheric mass density...
Loading historical data...
Loading historical data...
Loading historical data...
Loading historical data...
Loading historical data...
Loading historical data...
Loading historical data...

Documentation

Showing up to 5 results
|